Location: Eldred Sherwood Park Lake Dam
(42.9416°N, 93.5655°W)
Time: 07:54:23
(UTC+00:00)

Vanguard 2 Rocket - Pass Details

Date: 09 November 2024
Orbit: 554 x 3296 km, 32.9° (Epoch: 06 December)

Event Time Altitude Azimuth Distance (km) Brightness Sun altitude
Rises 11:10:13 0° 176° (S) 5,717 11.1 -20.2°
Reaches altitude 10° 11:16:41 10° 154° (SSE) 5,279 11.2 -19.0°
Maximum altitude 11:23:47 14° 128° (SE) 5,389 11.6 -17.7°
Drops below altitude 10° 11:31:48 10° 102° (ESE) 6,110 12.5 -16.3°
Sets 11:40:28 0° 83° (E) 7,279 13.0 -14.7°
